SL-16 DEB, 22616

Orbit data source: Space-Track

SL-16 DEB, 22616 is space debris in LEO originally from a launch on Fri, 26 Mar 1993 UTC launched from the Tyuratam Missile And Space Complex (TTMTR). Debris objects in space refer to the collection of defunct objects orbiting the Earth. Examples of debris include non-operational satellites, rocket bodies, and fragments generated from explosions, collisions, or faulty payload assembly.

Loading next visibility...
Identifier
22616, 1993-016AA
Orbit
LEO
Country
Flag of CISCIS
Related business
Manufacturer
Unknown
Mission
Spacecraft
Bus & Motor
Unknown
Mass
Unknown
Launch date (UTC)
1993-03-26 (32 years ago)
Launch vehicle
Unknown
Launch site
Tyuratam Missile And Space Complex (TTMTR)
Object type
Payload
Rocket body
Debris
Shape & HBR
Unknown
Radar Cross Section
Small (<0.1 m²)

Expand to show TLE details & history
Last TLE update: 12 hours ago

TLE from 12 hours ago
0 SL-16 DEB
1 22616U 93016AA  25258.61043692  .00000065  00000-0  10180-3 0  9993
2 22616  70.9942  77.0840 0187967 208.0107 225.7209 13.73937107627375
Epoch: 2025-09-15T14:39Z
TLE epoch observation values (Epoch: 2025-09-15T14:39:01.749Z)
Latitude
64.29786°
Longitude
-92.09049°
Altitude
1,093.963 km
Speed
7.263 km/s
True Right ascension
08h 09m 55s
True Declination
64° 10' 09"
Sunlit
Object was in daylight at epoch
Visualization orbit readout
Latitude
Unknown
Longitude
Unknown
Altitude
Unknown
Speed
Unknown
Apparent Right ascension
Unknown
Apparent Declination
Unknown
Sunlit
N/A
Visualization observer readout
Local Sidereal Time
19:40:21
Azimuth
Unknown
Elevation
Unknown
Doppler factor
Unknown
Orbital elements
Apogee altitude
1,121.808 km
Perigee altitude
845.062 km
Semi-major axis
7,361.572 km
Eccentricity
0.0188
Inclination
70.9942°
RAAN
77.084°
Arg. of periapsis
208.0107°
True anomaly
224.20387°
Mean anomaly
225.7209°
Eccentric anomaly
224.9599°
Mean motion
3.43627 °/min
Orbital period
104.76 mins
BSTAR
0.0001018
Loading maneuver chart data...
Computing Atmospheric mass density...
Loading historical data...
Loading historical data...
Loading historical data...
Loading historical data...
Loading historical data...
Loading historical data...
Loading historical data...

Documentation

Showing up to 5 results
|